Location: Darg?h
(16.5303°N, 80.5904°E)
Time: 01:24:34
(UTC+00:00)

Daily predictions for brighter satellites

Satellite Brightness Start Highest point End
(mag) Time Altitude Azimuth Time Altitude Azimuth Time Altitude Azimuth
BREEZE-M DEB (TANK) 4.3 00:01:13 10° NNW 00:03:43 29° NE 00:07:59 10° ESE
STARLINK-59 3.8 00:01:41 19° NW 00:04:16 50° SW 00:08:09 10° SSE
Cosmos 1844 Rocket 3.2 00:00:57 10° S 00:06:29 65° ESE 00:11:59 10° NNE
Cosmos 2242 Rocket 4.0 00:02:39 10° NNW 00:06:51 41° W 00:11:02 10° SSW
STARLINK-55 3.9 00:04:50 18° WNW 00:07:33 46° SW 00:11:23 10° SSE
ARIANE 5 R/B 4.5 00:05:26 10° WSW 00:07:47 12° SW 00:09:20 10° S
Cosmos 1110 Rocket 3.9 00:02:51 10° SSW 00:08:04 86° WNW 00:13:14 10° NNE
STARLINK-28 4.0 00:06:27 17° WNW 00:09:13 42° SW 00:13:01 10° SSE
Cosmos 371 Rocket 3.2 00:05:34 10° SSW 00:10:22 81° WNW 00:15:12 10° N
FENGYUN 3A 3.7 00:06:48 10° N 00:12:02 55° WNW 00:17:14 10° SSW
STARLINK-53 4.2 00:09:38 15° WNW 00:12:31 39° SW 00:16:15 10° SSE
STARLINK-54 4.3 00:11:15 15° WNW 00:14:10 36° SW 00:17:52 10° SSE
Cosmos 44 4.2 00:10:23 10° WSW 00:14:27 25° WNW 00:18:22 10° N
STARLINK-34 4.4 00:14:27 13° WNW 00:17:29 33° SW 00:21:06 10° S
SKYMED 2 3.5 00:13:55 10° S 00:18:15 79° WSW 00:22:34 10° NNW
Cosmos 1190 Rocket 4.5 00:14:12 10° NNW 00:19:03 40° W 00:23:57 10° S
STARLINK-81 4.4 00:17:17 12° WNW 00:20:35 34° SW 00:24:14 10° S
Cosmos 676 Rocket 4.0 00:15:50 10° NNW 00:21:06 77° WSW 00:26:24 10° S
CZ-4B R/B 3.3 00:16:03 10° N 00:21:36 63° WNW 00:27:11 10° SSW
SMAP 4.4 00:20:13 10° NNE 00:24:39 45° E 00:29:05 10° S
NOSS 3-2 (C) 3.9 00:20:04 10° SSW 00:25:27 60° ESE 00:31:06 10° NE
Cosmos 1954 Rocket 4.1 00:24:43 10° NNW 00:29:58 65° WSW 00:35:12 10° S
ATLAS 3B R/B 4.4 00:26:25 10° S 00:32:43 38° ESE 00:38:50 10° NE
ALOS 3.3 00:30:30 10° NNW 00:34:13 24° WNW 00:37:57 10° SW
Cosmos 1461 3.1 00:29:51 10° NNW 00:34:15 88° ENE 00:38:48 10° SSE
Cosmos 1943 3.6 00:28:47 10° N 00:34:21 69° ENE 00:39:56 10° SSE
Cosmos 1092 Rocket 4.4 00:29:13 10° NNW 00:34:54 41° W 00:40:35 10° SSW
BREEZE-M DEB (TANK) 4.2 00:20:38 10° NNW 00:35:09 57° NE 00:38:55 10° ESE
